Weather History for Praha / Ruzyne, Czech Republic

Change the Weather History Date:

Sunday, January 5, 2014

  Actual Average Record
Temperature  
Mean Temperature 37 °F -  
Max Temperature 42 °F 34 °F - ()
Min Temperature 32 °F 22 °F - ()
Degree Days  
Heating Degree Days 28    
Moisture  
Dew Point 37 °F    
Average Humidity 94    
Maximum Humidity 100    
Minimum Humidity 87    
Precipitation  
Precipitation 0.12 in 0.03 in - ()
Sea Level Pressure  
Sea Level Pressure 29.74 in    
Wind  
Wind Speed 8 mph ()    
Max Wind Speed 20 mph    
Max Gust Speed -    
Visibility 5.2 miles    
Events Fog , Rain    
T = Trace of Precipitation, MM = Missing Value Source: Averaged Metar Reports

Daily Weather History Graph

Daily Weather History Graph

Search for Another Location

Airport:

Trip Planner

Search our weather history database for the weather conditions in past years. The results will help you decide how hot, cold, wet, or windy it might be!

Date:

Astronomy

Jan. 05, 2014 Rise Set
Actual Time 8:01 AM CET 4:15 PM CET
Civil Twilight 7:23 AM CET 4:53 PM CET
Nautical Twilight 6:42 AM CET 5:34 PM CET
Astronomical Twilight 6:02 AM CET 6:14 PM CET
Moon 10:02 AM CET (1/5) 9:57 PM CET (1/5)
Length of Visible Light 9h 30m
Length of Day
8h 14m
Waxing Crescent, 22% of the Moon is Illuminated
Jan 5
Waxing Crescent
Jan 8
First Quarter
Jan 16
Full
Jan 24
Last Quarter
Jan 30
New

Hourly Weather History & Observations

Time (CET) Temp. Windchill Dew Point Humidity Pressure Visibility Wind Dir Wind Speed Gust Speed Precip Events Conditions
12:00 AM 40 °F - 37 °F 87% 29.65 in 6 mi South 8.9 mph - - Rain Light Rain
12:00 AM 39.2 °F 33.6 °F 37.4 °F 93% 29.59 in 6.2 mi South 8.1 mph - N/A Rain Light Rain
12:30 AM 39.2 °F 33.6 °F 37.4 °F 93% 29.59 in 6.2 mi South 8.1 mph - N/A Rain Light Rain
1:00 AM 40 °F - 38 °F 88% 29.63 in 6 mi South 8.9 mph - - Rain Light Rain
1:00 AM 39.2 °F 33.6 °F 37.4 °F 93% 29.59 in 6.2 mi South 8.1 mph - N/A Rain Light Rain
1:30 AM 39.2 °F 33.0 °F 37.4 °F 93% 29.56 in 6.2 mi SSW 9.2 mph - N/A Rain Light Rain
1:50 AM 39.2 °F 33.0 °F 37.4 °F 93% 29.56 in 6.2 mi South 9.2 mph - N/A   Scattered Clouds
2:00 AM 39 °F - 38 °F 93% 29.59 in 6 mi SSE 6.7 mph - - Rain Light Rain
2:00 AM 39.2 °F 32.5 °F 37.4 °F 93% 29.53 in 6.2 mi SSE 10.4 mph - N/A   Scattered Clouds
2:30 AM 39.2 °F 34.2 °F 37.4 °F 93% 29.56 in 6.2 mi South 6.9 mph - N/A   Partly Cloudy
3:00 AM 37 °F - 36 °F 92% 29.62 in 6 mi South 4.5 mph - -   Scattered Clouds
3:00 AM 37.4 °F 32.8 °F 35.6 °F 93% 29.56 in - South 5.8 mph - N/A   Clear
3:23 AM 33.8 °F 29.6 °F 33.8 °F 100% 29.56 in 2.5 mi NW 4.6 mph - N/A   Partly Cloudy
3:30 AM 33.8 °F 29.6 °F 32.0 °F 93% 29.56 in 2.2 mi NW 4.6 mph - N/A Fog Partly Cloudy
4:00 AM 35 °F - 34 °F 95% 29.64 in 3 mi West 6.7 mph - - Fog Light Fog
4:00 AM 35.6 °F 30.7 °F 33.8 °F 93% 29.56 in 2.8 mi SW 5.8 mph - N/A Fog Scattered Clouds
4:30 AM 33.8 °F 29.6 °F 33.8 °F 100% 29.56 in 4.3 mi SSW 4.6 mph - N/A   Partly Cloudy
5:00 AM 35 °F - 34 °F 95% 29.62 in 5 mi SW 4.5 mph - -   Mist
5:00 AM 35.6 °F 29.9 °F 33.8 °F 93% 29.56 in 5.0 mi SSW 6.9 mph - N/A   Partly Cloudy
5:30 AM 35.6 °F - 33.8 °F 93% 29.56 in 3.7 mi Variable 2.3 mph - N/A   Partly Cloudy
6:00 AM 35 °F - 34 °F 94% 29.64 in 4 mi SW 4.5 mph - -   Mist
6:00 AM 35.6 °F - 33.8 °F 93% 29.59 in 4.3 mi Variable 1.2 mph - N/A   Partly Cloudy
6:30 AM 33.8 °F - 33.8 °F 100% 29.59 in 2.5 mi Variable 1.2 mph - N/A   Partly Cloudy
7:00 AM 33 °F - 32 °F 95% 29.68 in 3 mi SW 8.9 mph - -   Mist
7:00 AM 32.0 °F - 32.0 °F 100% 29.62 in 2.8 mi Variable 2.3 mph - N/A   Partly Cloudy
7:30 AM 33.8 °F 30.8 °F 32.0 °F 93% 29.62 in 2.5 mi SSW 3.5 mph - N/A   Partly Cloudy
8:00 AM 34 °F - 33 °F 97% 29.69 in 2 mi SSE 2.2 mph - -   Mist
8:00 AM 33.8 °F - 33.8 °F 100% 29.62 in 2.5 mi Variable 1.2 mph - N/A   Mist
8:13 AM 33.8 °F - 33.8 °F 100% 29.62 in 2.5 mi Variable 2.3 mph - N/A Fog Mist
8:30 AM 33.8 °F 30.8 °F 33.8 °F 100% 29.65 in 2.5 mi WSW 3.5 mph - N/A Fog Mist
9:00 AM 35 °F - 34 °F 96% 29.71 in 3 mi West 8.9 mph - -   Mist
9:00 AM 35.6 °F 32.8 °F 33.8 °F 93% 29.65 in 3.1 mi West 3.5 mph - N/A   Scattered Clouds
9:09 AM 35.6 °F 29.9 °F 35.6 °F 100% 29.65 in 2.5 mi WSW 6.9 mph - N/A   Scattered Clouds
9:11 AM 37.4 °F 30.8 °F 35.6 °F 93% 29.65 in 1.9 mi WSW 9.2 mph - N/A   Mostly Cloudy
9:14 AM 37.4 °F 30.3 °F 35.6 °F 93% 29.65 in 1.6 mi WSW 10.4 mph - N/A   Mostly Cloudy
9:30 AM 37.4 °F 28.9 °F 35.6 °F 93% 29.65 in 1.2 mi WSW 13.8 mph - N/A   Mostly Cloudy
9:44 AM 37.4 °F 28.9 °F 37.4 °F 100% 29.68 in 3.1 mi WSW 13.8 mph - N/A   Mostly Cloudy
10:00 AM 38 °F - 38 °F 99% 29.74 in 3 mi WSW 15.7 mph - -   Mist
10:00 AM 39.2 °F 30.2 °F 37.4 °F 93% 29.68 in 3.1 mi WSW 17.3 mph - N/A   Mostly Cloudy
10:04 AM 39.2 °F 29.6 °F 37.4 °F 93% 29.71 in 3.7 mi SW 19.6 mph - N/A   Mostly Cloudy
10:07 AM 39.2 °F 29.6 °F 37.4 °F 93% 29.71 in 5.0 mi SW 19.6 mph - N/A   Mostly Cloudy
10:13 AM 39.2 °F 29.8 °F 39.2 °F 100% 29.71 in 6.2 mi SW 18.4 mph - N/A   Scattered Clouds
10:30 AM 39.2 °F 30.8 °F 39.2 °F 100% 29.71 in 6.2 mi SW 15.0 mph - N/A   Scattered Clouds
11:00 AM 40 °F - 39 °F 93% 29.75 in 7 mi West 8.9 mph - -   Scattered Clouds
11:00 AM 39.2 °F 31.6 °F 39.2 °F 100% 29.71 in 6.2 mi WSW 12.7 mph - N/A   Partly Cloudy
11:30 AM 41.0 °F 34.3 °F 39.2 °F 93% 29.71 in 6.2 mi SW 11.5 mph - N/A   Partly Cloudy
12:00 PM 42 °F - 40 °F 88% 29.75 in 7 mi WSW 8.9 mph - -   Mostly Cloudy
12:00 PM 42.8 °F 37.5 °F 39.2 °F 87% 29.71 in 6.2 mi WSW 9.2 mph - N/A   Mostly Cloudy
12:30 PM 42.8 °F 36.6 °F 39.2 °F 87% 29.71 in 6.2 mi SW 11.5 mph - N/A   Mostly Cloudy
1:00 PM 42 °F - 40 °F 88% 29.77 in 7 mi SW 13.4 mph - -   Mostly Cloudy
1:00 PM 42.8 °F 36.6 °F 39.2 °F 87% 29.74 in 6.2 mi SW 11.5 mph - N/A   Mostly Cloudy
1:30 PM 41.0 °F 34.3 °F 39.2 °F 93% 29.74 in 6.2 mi SSW 11.5 mph - N/A   Mostly Cloudy
2:00 PM 41 °F - 39 °F 92% 29.79 in 6 mi SW 11.2 mph - -   Mostly Cloudy
2:00 PM 41.0 °F 34.7 °F 39.2 °F 93% 29.74 in 6.2 mi SW 10.4 mph - N/A   Mostly Cloudy
2:25 PM 41.0 °F 34.7 °F 39.2 °F 93% 29.77 in 6.2 mi SW 10.4 mph - N/A Rain Light Rain
2:30 PM 41.0 °F 34.7 °F 39.2 °F 93% 29.77 in 6.2 mi SW 10.4 mph - N/A Rain Light Rain
3:00 PM 41 °F - 40 °F 93% 29.82 in 6 mi SW 8.9 mph - - Rain Light Rain
3:00 PM 41.0 °F 34.7 °F 39.2 °F 93% 29.77 in 6.2 mi SSW 10.4 mph - N/A Rain Light Rain
3:30 PM 41.0 °F 34.7 °F 39.2 °F 93% 29.80 in 5.0 mi SW 10.4 mph - N/A Rain Light Rain
4:00 PM 41 °F - 40 °F 92% 29.86 in 5 mi WSW 11.2 mph - - Rain Light Rain
4:00 PM 41.0 °F 33.5 °F 39.2 °F 93% 29.80 in 5.0 mi WSW 13.8 mph - N/A Rain Light Rain
4:30 PM 41.0 °F 34.3 °F 39.2 °F 93% 29.83 in 5.0 mi WSW 11.5 mph - N/A Rain Light Rain
5:00 PM 41 °F - 40 °F 92% 29.90 in 6 mi WSW 11.2 mph - - Rain Light Rain
5:00 PM 41.0 °F 34.7 °F 39.2 °F 93% 29.86 in 6.2 mi WSW 10.4 mph - N/A Rain Light Rain
5:30 PM 41.0 °F 34.7 °F 39.2 °F 93% 29.89 in 6.2 mi WSW 10.4 mph - N/A Rain Light Rain
6:00 PM 41 °F - 39 °F 90% 29.94 in 6 mi West 11.2 mph - - Rain Light Rain
6:00 PM 41.0 °F 34.3 °F 39.2 °F 93% 29.89 in 6.2 mi WSW 11.5 mph - N/A Rain Light Rain
6:30 PM 41.0 °F 34.7 °F 39.2 °F 93% 29.89 in 6.2 mi WSW 10.4 mph - N/A Rain Light Rain
7:00 PM 41 °F - 39 °F 91% 29.96 in 7 mi WSW 8.9 mph - - Rain Light Rain
7:00 PM 41.0 °F 34.7 °F 39.2 °F 93% 29.92 in 6.2 mi SW 10.4 mph - N/A Rain Light Rain
7:30 PM 41.0 °F 35.2 °F 39.2 °F 93% 29.92 in 6.2 mi WSW 9.2 mph - N/A Rain Light Rain
8:00 PM 41 °F - 39 °F 91% 29.98 in 9 mi SW 8.9 mph - - Rain Light Rain
8:00 PM 41.0 °F 35.2 °F 39.2 °F 93% 29.92 in 6.2 mi SW 9.2 mph - N/A Rain Light Rain
8:30 PM 41.0 °F 35.8 °F 39.2 °F 93% 29.95 in 6.2 mi SW 8.1 mph - N/A Rain Light Rain
8:51 PM 41.0 °F 35.2 °F 39.2 °F 93% 29.95 in 6.2 mi WSW 9.2 mph - N/A Rain Light Rain
9:00 PM 40 °F - 39 °F 94% 30.00 in 7 mi West 6.7 mph - - Rain Light Rain
9:00 PM 41.0 °F 35.2 °F 39.2 °F 93% 29.95 in 6.2 mi WSW 9.2 mph - N/A Rain Light Rain
9:30 PM 39.2 °F 33.6 °F 39.2 °F 100% 29.95 in 6.2 mi WSW 8.1 mph - N/A Rain Light Rain
10:00 PM 40 °F - 39 °F 93% 30.01 in 9 mi SW 6.7 mph - - Rain Light Rain
10:00 PM 39.2 °F 33.0 °F 39.2 °F 100% 29.95 in 6.2 mi SW 9.2 mph - N/A   Overcast
10:30 PM 39.2 °F 34.2 °F 39.2 °F 100% 29.95 in 6.2 mi SW 6.9 mph - N/A   Overcast
11:00 PM 39 °F - 37 °F 90% 30.02 in 9 mi SW 6.7 mph - -   Mostly Cloudy
11:00 PM 39.2 °F 33.6 °F 37.4 °F 93% 29.98 in 6.2 mi SW 8.1 mph - N/A   Mostly Cloudy
11:30 PM 37.4 °F 30.3 °F 35.6 °F 93% 29.98 in 6.2 mi SSW 10.4 mph - N/A   Partly Cloudy